Weather History for Joliet, IL

Change the Weather History Date:

Saturday, February 15, 2014

  Actual Average (KLOT) Record (KLOT)
Temperature  
Mean Temperature 7 °F 27 °F  
Max Temperature 20 °F 35 °F 56 °F (1999)
Min Temperature -6 °F 20 °F -3 °F (2014)
Degree Days  
Heating Degree Days 58 38  
Month to date heating degree days 592  
Since 1 July heating degree days 4273  
Cooling Degree Days 0 0  
Month to date cooling degree days 0  
Year to date cooling degree days 0  
Moisture  
Dew Point 4 °F    
Average Humidity 73    
Maximum Humidity 88    
Minimum Humidity 60    
Precipitation  
Precipitation 0.00 in 0.05 in 0.40 in (2005)
Month to date precipitation 0.84  
Year to date precipitation 2.77  
Snow  
Snow 0.00 in 0.20 in 1.30 in (1996)
Month to date snowfall 3.7  
Since 1 July snowfall 24.7  
Snow Depth -    
Sea Level Pressure  
Sea Level Pressure 30.04 in    
Wind  
Wind Speed 3 mph (SSW)    
Max Wind Speed 10 mph    
Max Gust Speed -    
Visibility 8 miles    
Events Snow    
T = Trace of Precipitation, MM = Missing Value Source: NWS Daily Summary

Daily Weather History Graph

Daily Weather History Graph

Search for Another Location

Airport:

Trip Planner

Search our weather history database for the weather conditions in past years. The results will help you decide how hot, cold, wet, or windy it might be!

Date:

Astronomy

Feb. 15, 2014 Rise Set
Actual Time 6:47 AM CST 5:26 PM CST
Civil Twilight 6:19 AM CST 5:54 PM CST
Nautical Twilight 5:46 AM CST 6:27 PM CST
Astronomical Twilight 5:14 AM CST 6:59 PM CST
Moon 6:27 PM CST (2/15) 6:45 AM CST (2/15)
Length of Visible Light 11h 35m
Length of Day
10h 38m
Waxing Gibbous, 99% of the Moon is Illuminated
Feb 15
Waxing Gibbous
Feb 22
Last Quarter
Mar 1
New
Mar 8
First Quarter
Mar 16
Full

Hourly Weather History & Observations

Time (CST) Temp. Windchill Dew Point Humidity Pressure Visibility Wind Dir Wind Speed Gust Speed Precip Events Conditions
12:15 AM -1.3 °F - -5.1 °F 84% 29.97 in 7.0 mi Calm Calm - N/A   Clear
12:35 AM 4.1 °F - 1.2 °F 88% 29.97 in 10.0 mi Calm Calm - N/A   Clear
12:55 AM 8.4 °F 1.8 °F 2.7 °F 77% 29.97 in 10.0 mi NW 3.5 mph - N/A   Clear
1:15 AM 8.2 °F -0.3 °F 2.3 °F 77% 29.97 in 10.0 mi NW 4.6 mph - N/A   Clear
1:35 AM 8.4 °F -2.8 °F 1.9 °F 75% 29.99 in 10.0 mi NW 6.9 mph - N/A   Clear
1:55 AM 8.6 °F 0.1 °F 1.9 °F 74% 30.00 in 10.0 mi WNW 4.6 mph - N/A   Clear
2:15 AM 7.3 °F 0.5 °F 0.5 °F 74% 30.01 in 10.0 mi WNW 3.5 mph - N/A   Clear
2:35 AM 6.4 °F -0.5 °F 0.1 °F 75% 30.02 in 10.0 mi WNW 3.5 mph - N/A   Clear
2:55 AM 6.8 °F -2.0 °F 0.1 °F 74% 30.02 in 10.0 mi NW 4.6 mph - N/A   Clear
3:15 AM 7.3 °F 0.5 °F 0.1 °F 72% 30.03 in 10.0 mi NW 3.5 mph - N/A   Clear
3:35 AM 7.2 °F 0.3 °F -0.0 °F 72% 30.03 in 10.0 mi NW 3.5 mph - N/A   Clear
3:55 AM 6.6 °F -0.3 °F -0.4 °F 73% 30.04 in 10.0 mi NW 3.5 mph - N/A   Clear
4:15 AM 6.1 °F -0.9 °F -0.8 °F 73% 30.04 in 10.0 mi NW 3.5 mph - N/A   Clear
4:35 AM 5.5 °F -1.5 °F -1.1 °F 74% 30.04 in 10.0 mi WNW 3.5 mph - N/A   Clear
4:55 AM 5.0 °F -2.1 °F -1.3 °F 75% 30.05 in 10.0 mi NW 3.5 mph - N/A   Clear
5:15 AM 4.5 °F - -1.7 °F 76% 30.06 in 10.0 mi Calm Calm - N/A   Clear
5:35 AM 1.2 °F - -4.4 °F 77% 30.05 in 10.0 mi Calm Calm - N/A   Clear
5:55 AM -2.2 °F - -7.1 °F 80% 30.06 in 10.0 mi Calm Calm - N/A   Clear
6:15 AM -4.5 °F - -9.2 °F 80% 30.06 in 10.0 mi Calm Calm - N/A   Clear
6:35 AM -6.3 °F - -10.5 °F 82% 30.06 in 10.0 mi Calm Calm - N/A   Clear
6:55 AM -6.9 °F - -11.0 °F 82% 30.06 in 10.0 mi Calm Calm - N/A   Clear
7:15 AM -5.1 °F - -9.0 °F 83% 30.06 in 10.0 mi Calm Calm - N/A   Clear
7:35 AM -4.2 °F - -9.6 °F 78% 30.07 in 10.0 mi Calm Calm - N/A   Clear
7:55 AM 2.7 °F - -2.0 °F 81% 30.08 in 10.0 mi Calm Calm - N/A   Clear
8:15 AM 5.5 °F -1.5 °F -1.1 °F 74% 30.09 in 10.0 mi WSW 3.5 mph - N/A   Clear
8:35 AM 6.4 °F -2.4 °F -1.3 °F 71% 30.10 in 10.0 mi West 4.6 mph - N/A   Clear
8:55 AM 7.3 °F - -1.3 °F 68% 30.11 in 10.0 mi Calm Calm - N/A   Clear
9:15 AM 7.7 °F - -1.3 °F 67% 30.10 in 10.0 mi Calm Calm - N/A   Clear
9:35 AM 9.1 °F - -0.4 °F 65% 30.10 in 10.0 mi Calm Calm - N/A   Clear
9:55 AM 10.2 °F - 0.1 °F 64% 30.11 in 10.0 mi Calm Calm - N/A   Clear
10:15 AM 11.1 °F - 0.5 °F 62% 30.11 in 10.0 mi Calm Calm - N/A   Clear
10:35 AM 12.0 °F 5.9 °F 0.7 °F 60% 30.12 in 10.0 mi WSW 3.5 mph - N/A   Clear
10:55 AM 12.7 °F - 1.4 °F 61% 30.12 in 10.0 mi Calm Calm - N/A   Clear
11:15 AM 13.3 °F - 2.5 °F 62% 30.11 in 10.0 mi Calm Calm - N/A   Clear
11:35 AM 14.5 °F 8.8 °F 2.8 °F 60% 30.11 in 10.0 mi SW 3.5 mph - N/A   Clear
11:55 AM 15.4 °F - 3.7 °F 60% 30.09 in 10.0 mi Calm Calm - N/A   Clear
12:15 PM 16.3 °F - 4.6 °F 60% 30.08 in 10.0 mi Calm Calm - N/A   Clear
12:35 PM 18.1 °F - 6.3 °F 60% 30.07 in 10.0 mi Calm Calm - N/A   Clear
12:55 PM 19.2 °F 14.1 °F 8.1 °F 62% 30.06 in 10.0 mi SSW 3.5 mph - N/A   Clear
1:15 PM 19.9 °F 12.1 °F 8.2 °F 61% 30.07 in 10.0 mi SW 5.8 mph - N/A   Clear
1:35 PM 20.5 °F 12.8 °F 9.7 °F 63% 30.05 in 10.0 mi WSW 5.8 mph - N/A   Clear
1:55 PM 20.3 °F 9.0 °F 9.1 °F 62% 30.05 in 10.0 mi SSW 10.4 mph - N/A   Clear
2:15 PM 19.0 °F 8.2 °F 7.2 °F 60% 30.06 in 10.0 mi SSW 9.2 mph - N/A   Clear
2:35 PM 18.3 °F 7.3 °F 6.4 °F 60% 30.06 in 10.0 mi SSW 9.2 mph - N/A   Clear
2:55 PM 17.4 °F 8.0 °F 6.3 °F 62% 30.06 in 10.0 mi SSW 6.9 mph - N/A   Clear
3:15 PM 16.7 °F 6.2 °F 5.9 °F 63% 30.05 in 10.0 mi South 8.1 mph - N/A   Clear
3:35 PM 16.3 °F 6.7 °F 5.7 °F 63% 30.04 in 10.0 mi SSW 6.9 mph - N/A   Clear
3:55 PM 16.7 °F 6.2 °F 6.8 °F 65% 30.03 in 10.0 mi SSW 8.1 mph - N/A   Clear
4:15 PM 16.7 °F 8.3 °F 7.5 °F 67% 30.02 in 10.0 mi South 5.8 mph - N/A   Clear
4:35 PM 16.5 °F 8.1 °F 7.7 °F 68% 30.01 in 10.0 mi South 5.8 mph - N/A   Clear
4:55 PM 16.5 °F 6.0 °F 7.7 °F 68% 30.01 in 10.0 mi SSW 8.1 mph - N/A   Scattered Clouds
5:15 PM 16.7 °F 7.2 °F 7.7 °F 68% 30.01 in 10.0 mi SSW 6.9 mph - N/A   Mostly Cloudy
5:35 PM 16.3 °F 10.8 °F 7.9 °F 69% 30.02 in 10.0 mi SSE 3.5 mph - N/A   Overcast
5:55 PM 16.3 °F 7.8 °F 8.4 °F 71% 30.01 in 10.0 mi SSE 5.8 mph - N/A   Overcast
6:15 PM 15.8 °F 7.2 °F 8.1 °F 72% 30.02 in 10.0 mi SSE 5.8 mph - N/A   Overcast
6:35 PM 16.2 °F 9.0 °F 8.6 °F 72% 30.02 in 10.0 mi SSE 4.6 mph - N/A   Overcast
6:55 PM 16.2 °F 9.0 °F 8.6 °F 72% 30.02 in 7.0 mi SSE 4.6 mph - N/A   Overcast
7:15 PM 15.4 °F 8.1 °F 9.0 °F 76% 30.02 in 2.0 mi SSE 4.6 mph - N/A Snow Light Snow
7:35 PM 14.9 °F 7.5 °F 10.8 °F 84% 30.02 in 1.0 mi SSE 4.6 mph - N/A Snow Light Snow
7:55 PM 14.7 °F 7.3 °F 11.3 °F 86% 30.02 in 0.8 mi SSE 4.6 mph - N/A Snow Light Snow
8:15 PM 15.3 °F 6.6 °F 12.0 °F 87% 30.01 in 1.2 mi South 5.8 mph - N/A Snow Light Snow
8:35 PM 14.9 °F 6.1 °F 12.0 °F 88% 30.01 in 0.8 mi SSE 5.8 mph - N/A Snow Light Snow
8:55 PM 14.9 °F 6.1 °F 12.0 °F 88% 30.00 in 1.5 mi SSE 5.8 mph - N/A Snow Light Snow
9:15 PM 15.3 °F 6.6 °F 12.0 °F 87% 29.99 in 1.5 mi SE 5.8 mph - N/A Snow Light Snow
9:35 PM 15.3 °F 6.6 °F 12.2 °F 88% 29.99 in 1.0 mi SSE 5.8 mph - N/A Snow Light Snow
9:55 PM 15.3 °F 7.9 °F 12.2 °F 88% 29.99 in 1.5 mi SSE 4.6 mph - N/A Snow Light Snow
10:15 PM 15.6 °F 10.0 °F 12.2 °F 86% 29.99 in 4.0 mi SE 3.5 mph - N/A Snow Light Snow
10:35 PM 15.8 °F 8.6 °F 12.4 °F 86% 29.98 in 7.0 mi South 4.6 mph - N/A   Overcast
10:55 PM 15.6 °F 8.3 °F 12.2 °F 86% 29.97 in 7.0 mi SSE 4.6 mph - N/A   Scattered Clouds
11:15 PM 15.6 °F 8.3 °F 12.4 °F 87% 29.96 in 7.0 mi SSE 4.6 mph - N/A   Clear
11:35 PM 16.2 °F 9.0 °F 13.1 °F 88% 29.96 in 7.0 mi SSE 4.6 mph - N/A   Clear
11:55 PM 16.7 °F 11.2 °F 13.6 °F 88% 29.96 in 7.0 mi South 3.5 mph - N/A   Scattered Clouds